BREEZE-M R/B, 42909

Orbit data source: Space-Track

BREEZE-M R/B, 42909 is space debris in GEO originally from a launch on Wed, 16 Aug 2017 UTC launched from the Tyuratam Missile And Space Complex (TTMTR). Debris objects in space refer to the collection of defunct objects orbiting the Earth. Examples of debris include non-operational satellites, rocket bodies, and fragments generated from explosions, collisions, or faulty payload assembly.

Not visible in the next 10 days
Identifier
42909, 2017-046C
Orbit
GEO
Country
Flag of CISCIS
Related business
Manufacturer
Khrunichev
Mission
Spacecraft
Bus & Motor
BRIZ, Unknown motor
Mass
~1,600 kg wet, 1,600 kg dry
Launch date (UTC)
2017-08-16 (8 years ago)
Launch vehicle
Unknown
Launch site
Tyuratam Missile And Space Complex (TTMTR)
Object type
Payload
Rocket body
Debris
Shape & HBR
Cyl, 2.0 m
Radar Cross Section
15.135 m²

Expand to show TLE details & history
Last TLE update: 1 day ago

TLE from 1 day ago
0 BREEZE-M R/B
1 42909U 17046C   25290.51672014 -.00000168  00000-0  00000-0 0  9992
2 42909   8.0055  70.7041 0752323 155.7989 208.0494  0.90332514 26966
Epoch: 2025-10-17T12:24Z
TLE epoch observation values (Epoch: 2025-10-17T12:24:04.620Z)
Latitude
Longitude
-141.52692°
Altitude
41,882.364 km
Speed
2.775 km/s
True Right ascension
04h 43m 00s
True Declination
0° 00' 00"
Sunlit
Object was in daylight at epoch
Visualization orbit readout
Latitude
Unknown
Longitude
Unknown
Altitude
Unknown
Speed
Unknown
Apparent Right ascension
Unknown
Apparent Declination
Unknown
Sunlit
N/A
Visualization observer readout
Local Sidereal Time
17:06:24
Azimuth
Unknown
Elevation
Unknown
Doppler factor
Unknown
Orbital elements
Apogee altitude
42,227.225 km
Perigee altitude
35,425.544 km
Semi-major axis
45,204.521 km
Eccentricity
0.07523
Inclination
8.0055°
RAAN
70.7041°
Arg. of periapsis
155.7989°
True anomaly
204.30966°
Mean anomaly
208.0494°
Eccentric anomaly
206.14969°
Mean motion
0.22582 °/min
Orbital period
1,594.16 mins
BSTAR
0
Loading maneuver chart data...
Computing Atmospheric mass density...
Loading historical data...
Loading historical data...
Loading historical data...
Loading historical data...
Loading historical data...
Loading historical data...
Loading historical data...
Other satellites on launch #46 in the year 2017 (2017-08-16 UTC)

Documentation

Showing up to 5 results
|